LU9DDB Weather Reports


time (UTC)temp
C
wind
direction
speed
KPH
gust
KPH
rain 1hr
cm
rain 24hr
cm
rain mn
cm
humidity
%
barometer
mb
20260508134551 8 216 14.5 32.2 0.00 0.13 0.05 72 1000.8
20260508133048 8 267 20.9 41.8 0.00 0.13 0.05 72 1001.0
20260508131533 8 263 9.7 30.6 0.00 0.13 0.05 74 1000.9
20260508130033 8 246 14.5 38.6 0.00 0.13 0.05 75 1000.8
20260508124535 8 237 17.7 40.2 0.00 0.13 0.05 76 1000.7
20260508123043 8 270 14.5 33.8 0.00 0.13 0.05 77 1000.5
20260508121530 8 254 12.9 33.8 0.00 0.13 0.05 78 1000.3
20260508120024 8 207 11.3 35.4 0.00 0.13 0.05 78 1000.1
20260508114521 7 257 14.5 33.8 0.00 0.13 0.05 80 999.9
20260508113020 7 250 12.9 41.8 0.00 0.13 0.05 81 999.7
20260508111516 7 261 12.9 38.6 0.00 0.13 0.05 83 999.7
20260508110013 7 265 8.0 40.2 0.00 0.13 0.05 83 999.6
20260508104512 7 265 14.5 32.2 0.00 0.13 0.05 86 999.5
20260508103012 7 250 14.5 30.6 0.00 0.13 0.05 87 999.2
20260508101508 7 220 14.5 37.0 0.00 0.13 0.05 87 999.1
20260508100005 7 267 16.1 41.8 0.00 0.13 0.05 87 998.9
20260508094503 7 268 11.3 33.8 0.00 0.13 0.05 87 998.5
20260508093008 7 242 14.5 32.2 0.00 0.13 0.05 87 998.3
20260508091606 7 265 8.0 22.5 0.00 0.13 0.05 87 998.2
20260508090115 7 282 9.7 25.7 0.00 0.13 0.05 88 998.1
20260508084557 7 200 14.5 32.2 0.00 0.13 0.05 85 998.1
20260508083054 8 230 16.1 41.8 0.00 0.13 0.05 81 998.1
20260508081604 8 261 11.3 32.2 0.00 0.13 0.05 80 998.1
20260508080052 8 241 16.1 30.6 0.00 0.13 0.05 78 998.0
20260508074551 8 244 14.5 32.2 0.00 0.13 0.05 79 998.0
20260508073106 7 215 12.9 29.0 0.00 0.13 0.05 82 998.0
20260508071549 7 221 14.5 32.2 0.00 0.13 0.05 82 998.3
20260508070050 7 222 6.4 29.0 0.00 0.13 0.05 84 998.3
20260508064552 7 292 11.3 35.4 0.00 0.38 0.05 84 998.4
20260508063053 8 238 12.9 35.4 0.00 0.38 0.05 84 998.7
20260508061545 8 249 12.9 35.4 0.00 0.38 0.05 81 998.6
20260508060059 8 256 12.9 37.0 0.00 0.38 0.05 80 998.6
20260508054538 8 264 9.7 32.2 0.00 0.61 0.05 82 998.6
20260508053036 8 216 12.9 29.0 0.00 0.61 0.05 83 998.8
20260508051531 8 235 12.9 33.8 0.03 0.61 0.05 85 998.5
20260508044527 8 205 11.3 30.6 0.03 2.03 0.05 89 998.4
20260508043025 8 242 9.7 33.8 0.03 2.03 0.05 90 998.2
20260508041523 8 206 11.3 37.0 0.00 2.03 0.03 91 998.3
20260508040020 8 261 12.9 38.6 0.03 2.46 0.03 91 998.1
20260508034524 8 267 16.1 32.2 0.03 2.46 0.03 91 998.1
20260508033015 8 242 12.9 33.8 0.03 2.46 0.03 91 998.0
20260508031513 9 259 9.7 30.6 0.03 2.46 0.03 91 997.9
20260508030009 9 265 9.7 19.3 0.03 2.44 2.44 92 997.8
20260508024521 9 238 11.3 33.8 0.05 2.44 2.44 91 997.7
20260508023005 9 281 11.3 33.8 0.05 2.44 2.44 92 997.7
20260508021501 10 279 14.5 35.4 0.05 2.44 2.44 92 997.6
20260508020126 10 246 14.5 32.2 0.05 2.41 2.41 91 997.7
20260508014558 10 220 14.5 29.0 0.03 2.39 2.39 90 997.8
20260508013058 10 220 17.7 38.6 0.03 2.39 2.39 90 998.0
20260508011532 10 237 14.5 32.2 0.03 2.39 2.39 91 998.0
20260508004554 10 272 14.5 29.0 0.00 2.39 2.39 89 998.0
20260508003016 11 252 12.9 30.6 0.00 2.39 2.39 86 998.3
20260508001527 11 262 14.5 41.8 0.00 2.39 2.39 83 998.3
20260508000010 11 237 17.7 35.4 0.00 2.39 2.39 83 998.1
20260507234510 11 289 12.9 35.4 0.00 2.39 2.39 84 998.0
20260507233007 11 250 11.3 25.7 0.00 2.39 2.39 84 997.9
20260507231505 11 233 9.7 32.2 0.00 2.39 2.39 86 998.1
20260507230004 11 279 11.3 24.1 0.00 2.39 2.39 88 998.4
20260507224502 11 241 11.3 22.5 0.00 2.39 2.39 87 998.5
20260507223058 12 255 9.7 19.3 0.00 2.39 2.39 84 998.5
20260507221557 12 263 12.9 30.6 0.00 2.39 2.39 83 998.4
20260507220059 12 239 9.7 33.8 0.00 2.39 2.39 84 997.9
20260507214555 12 255 16.1 29.0 0.00 2.39 2.39 80 997.7
20260507213049 13 267 11.3 24.1 0.00 2.39 2.39 78 997.5
20260507211550 13 271 8.0 24.1 0.00 2.39 2.39 77 997.8
20260507204545 13 244 12.9 30.6 0.00 2.39 2.39 75 997.8
20260507203109 13 265 12.9 29.0 0.00 2.39 2.39 74 997.4
20260507201540 13 261 12.9 35.4 0.00 2.39 2.39 73 997.2
20260507200041 14 249 12.9 33.8 0.00 2.39 2.39 72 996.5
20260507194538 14 267 11.3 29.0 0.00 2.39 2.39 72 995.7
20260507193040 14 247 14.5 29.0 0.00 2.39 2.39 72 995.9
20260507191539 14 240 9.7 25.7 0.00 2.39 2.39 73 996.0
20260507190034 14 234 14.5 32.2 0.00 2.39 2.39 74 997.3
20260507184534 14 252 9.7 29.0 0.00 2.39 2.39 74 997.7
20260507183033 14 261 12.9 25.7 0.00 2.39 2.39 74 998.0
20260507181529 14 223 16.1 29.0 0.00 2.39 2.39 75 998.9
20260507180029 14 260 8.0 29.0 0.00 2.39 2.39 76 999.4
20260507174537 14 260 11.3 25.7 0.00 2.39 2.39 77 999.0
20260507173048 13 242 9.7 19.3 0.00 2.39 2.39 78 997.9
20260507171526 13 214 8.0 12.9 0.00 2.39 2.39 79 997.1
20260507170024 13 238 6.4 22.5 0.00 2.39 2.39 79 997.7
20260507164522 13 300 3.2 24.1 0.00 2.39 2.39 79 998.6
20260507163020 13 247 9.7 29.0 0.03 2.39 2.39 78 999.1
20260507161519 14 265 14.5 24.1 0.03 2.39 2.39 78 998.6
20260507160019 14 231 11.3 25.7 0.03 2.39 2.39 78 997.3
20260507154515 14 207 9.7 17.7 0.03 2.39 2.39 80 997.6
20260507153013 14 257 8.0 29.0 0.00 2.36 2.36 81 997.9
20260507151511 15 286 12.9 24.1 0.00 2.36 2.36 80 998.0
20260507150012 15 226 12.9 22.5 0.00 2.36 2.36 83 997.8
20260507144509 15 251 9.7 25.7 0.00 2.36 2.36 86 998.5
20260507143008 15 244 4.8 16.1 0.00 2.36 2.36 87 998.1
20260507141507 15 204 8.0 17.7 0.00 2.36 2.36 86 997.1
20260507140007 15 169 8.0 16.1 0.00 2.59 2.36 86 997.2